Weather in Mihailov

Russia / Ryazan Oblast     54°13′57″N   39°01′24″E
temp.,
°C
wind,
m/s
gust,
m/s
humid.,
%
clouds,
%
prec.,
mm/h
press.,
hPa
HPBL,
m
19 may, wed
wed1900:00+19se617630 0.0 1005480
03:00+15ese47792 0.0 1005118
06:00+16sse4109320 0.1 1006361
09:00+19s577641 0.3 1007968
12:00+21sse686695 0.3 10081464
15:00+22sse6956100 0.4 10071746
18:00+20sse6106986 0.3 1007597
21:00+16sse35888 0.8 100788
20 may, thu
thu2000:00+15ene499271 0.1 1005173
03:00+12s6128962 0.7 1006586
06:00+11se5109375 0.0 1007404
09:00+14se71082100 0.0 1006814
12:00+16sse797199 0.7 10061361
15:00+17s787040 2.0 10051272
18:00+16sw687891 0.9 1005921
21:00+12ssw389497 0.9 1006232
21 may, fri
fri2100:00+11ssw5109457 0.0 1007461
03:00+11sw61188100 0.0 1008723
06:00+10wsw71288100 0.0 1009631
09:00+12wsw6985100 0.1 1011824
12:00+13w6880100 0.0 1013851
15:00+16wnw46628 0.1 10141329
18:00+16w3566100 0.0 1015376
21:00+12wsw2274100 0.0 101724
22 may, sat
sat2200:00+11w2274100 0.0 101816
03:00+10nw2278100 0.0 101817
06:00+11ne118199 0.0 101963
09:00+15ese2370100 0.0 1020466
12:00+18ese3359100 0.0 10191337
15:00+18ese3257100 0.0 10191408
18:00+17ese336781 0.0 10181026
21:00+12ese3383100 0.0 101934
23 may, sun
sun2300:00+11e3492100 0.0 101866
03:00+10ene3695100 0.0 1017128
06:00+11ene3894100 0.0 1016229
09:00+15e6982100 0.0 1013427
12:00+17e5784100 0.1 1012504
15:00+18ese2382100 0.2 1010408
18:00+19n2388100 0.2 1008133
21:00+16nne3395100 0.3 100761